Location: Curicchi
(45.0167°N, 12.0500°E)
Time: 18:08:57
(UTC+00:00)

Cosmos 2298 Rocket - Pass Details

Date: 07 June 2020
Orbit: 776 x 784 km, 74.0° (Epoch: 01 July)

Event Time Altitude Azimuth Distance (km) Brightness Sun altitude
Rises 00:09:08 0° 340° (NNW) 3,270 8.2 -20.9°
Reaches altitude 10° 00:11:33 10° 343° (NNW) 2,340 7.3 -20.8°
Maximum altitude 00:16:51 70° 67° (ENE) 833 4.2 -20.5°
Enters shadow 00:19:50 26° 145° (SE) 1,488 5.1 -20.4°
